Key West Weather Center

Moon Phase Calendar



Online Cameras

 


      

Current Conditions in Key West
8/13/2022 1:46:28 AM

85°F
Feels Like 93
Clear
Humidity
72%
Pressure
30.03"
Wind
6.9 mph (ESE)
Dew Point
75°F
UV Index
0/10 (Low)
Visibility
6 mi

Hourly Forecast

Date & Time Sat, Aug 13
1:00 AM
Sat, Aug 13
2:00 AM
Sat, Aug 13
3:00 AM
Sat, Aug 13
4:00 AM
Sat, Aug 13
5:00 AM
Sat, Aug 13
6:00 AM
Sat, Aug 13
7:00 AM
Sat, Aug 13
8:00 AM
Sat, Aug 13
9:00 AM
Sat, Aug 13
10:00 AM
Sat, Aug 13
11:00 AM
Sat, Aug 13
12:00 PM
Sat, Aug 13
1:00 PM
Sat, Aug 13
2:00 PM
Sat, Aug 13
3:00 PM
Sat, Aug 13
4:00 PM
Sat, Aug 13
5:00 PM
Sat, Aug 13
6:00 PM
Sat, Aug 13
7:00 PM
Sat, Aug 13
8:00 PM
Sat, Aug 13
9:00 PM
Sat, Aug 13
10:00 PM
Sat, Aug 13
11:00 PM
Sun, Aug 14
12:00 AM
Sun, Aug 14
1:00 AM
Sun, Aug 14
2:00 AM
Sun, Aug 14
3:00 AM
Sun, Aug 14
4:00 AM
Sun, Aug 14
5:00 AM
Sun, Aug 14
6:00 AM
Sun, Aug 14
7:00 AM
Sun, Aug 14
8:00 AM
Sun, Aug 14
9:00 AM
Sun, Aug 14
10:00 AM
Sun, Aug 14
11:00 AM
Sun, Aug 14
12:00 PM
Sun, Aug 14
1:00 PM
Sun, Aug 14
2:00 PM
Sun, Aug 14
3:00 PM
Sun, Aug 14
4:00 PM
Sun, Aug 14
5:00 PM
Sun, Aug 14
6:00 PM
Sun, Aug 14
7:00 PM
Sun, Aug 14
8:00 PM
Sun, Aug 14
9:00 PM
Sun, Aug 14
10:00 PM
Sun, Aug 14
11:00 PM
Mon, Aug 15
12:00 AM
Condition
Rain

Clear

Clouds

Clouds

Clouds

Clouds

Clouds

Clouds

Clear

Clear

Clouds

Clouds

Clouds

Clouds

Clouds

Clouds

Clouds

Clouds

Clouds

Clouds

Clouds

Clouds

Clouds

Clouds

Rain

Rain

Rain

Rain

Rain

Clouds

Clouds

Clouds

Clouds

Clouds

Clouds

Clouds

Clouds

Clouds

Clouds

Clouds

Clouds

Clouds

Clouds

Clouds

Clear

Clear

Clear

Clear
Temperature 84°F85°F84°F84°F84°F83°F83°F83°F83°F83°F83°F83°F83°F84°F84°F84°F84°F84°F84°F83°F83°F83°F83°F83°F82°F82°F82°F82°F82°F83°F83°F83°F83°F83°F83°F83°F83°F83°F84°F84°F84°F84°F84°F84°F83°F83°F83°F83°F
Feels Like 93°F93°F92°F91°F90°F89°F88°F88°F88°F88°F89°F88°F89°F89°F89°F89°F89°F89°F89°F89°F89°F89°F89°F89°F88°F88°F88°F88°F88°F88°F88°F88°F89°F89°F88°F89°F89°F89°F90°F89°F89°F89°F89°F89°F88°F89°F89°F88°F
Cloudiness 11%0%18%27%31%33%35%31%6%10%20%22%21%21%30%34%32%34%45%48%48%25%18%16%27%39%100%100%100%100%100%100%79%51%38%31%28%26%16%17%17%16%14%13%5%2%2%1%
Visibility 6 mi6 mi6 mi6 mi6 mi6 mi6 mi6 mi6 mi6 mi6 mi6 mi6 mi6 mi6 mi6 mi6 mi6 mi6 mi6 mi6 mi6 mi6 mi6 mi6 mi6 mi6 mi6 mi6 mi6 mi6 mi6 mi6 mi6 mi6 mi6 mi6 mi6 mi6 mi6 mi6 mi6 mi6 mi6 mi6 mi6 mi6 mi6 mi
Precipitation 76%79%64%58%53%57%52%45%0%0%0%0%0%0%13%6%3%7%7%4%0%0%0%0%24%33%53%55%55%56%55%39%0%0%0%0%0%0%0%0%0%0%0%0%0%0%0%1%
Humidity 73%72%72%72%72%70%69%68%67%67%68%68%68%68%67%68%68%68%68%69%69%70%71%71%73%74%73%72%72%70%70%70%70%70%69%70%70%70%70%69%68%68%68%67%67%68%69%68%
Dew Point 75°F75°F74°F74°F74°F72°F72°F71°F71°F71°F72°F72°F72°F72°F72°F72°F72°F72°F72°F72°F72°F72°F73°F73°F73°F73°F73°F73°F72°F72°F72°F72°F72°F72°F72°F72°F73°F73°F73°F72°F72°F72°F72°F72°F72°F72°F72°F72°F
Pressure 30.03"30.03"30.03"30"30"29.97"29.97"30"30"30.03"30.03"30.03"30.03"30.03"30"30"29.97"29.97"29.97"29.97"29.97"30"30"30"29.97"29.97"29.97"29.94"29.94"29.94"29.94"29.97"29.97"29.97"30"30"30"30"29.97"29.97"29.97"29.94"29.94"29.94"29.97"29.97"29.97"29.97"
Wind Speed 9.7 mph10.6 mph10.6 mph11 mph11.3 mph9.9 mph8.1 mph7.6 mph7.2 mph8.2 mph8 mph7.6 mph6.7 mph5.8 mph5.5 mph5.8 mph5.5 mph4.2 mph4 mph4.8 mph3.4 mph5 mph7 mph7.2 mph7.2 mph7.4 mph7.3 mph7 mph7.6 mph7.4 mph7.3 mph7.4 mph7.5 mph7.3 mph6.7 mph6.4 mph6.3 mph6.2 mph5.3 mph4.6 mph3.8 mph3.2 mph3 mph2.4 mph1.7 mph3.6 mph5.6 mph4.2 mph
Wind
Direction
89°
E
95°
E
105°
ESE
115°
ESE
117°
ESE
113°
ESE
109°
ESE
99°
E
90°
E
98°
E
110°
ESE
106°
ESE
98°
E
93°
E
96°
E
105°
ESE
113°
ESE
100°
E
109°
ESE
141°
SE
119°
ESE
87°
E
65°
ENE
63°
ENE
65°
ENE
75°
ENE
75°
ENE
82°
E
82°
E
87°
E
95°
E
100°
E
105°
ESE
104°
ESE
106°
ESE
106°
ESE
109°
ESE
112°
ESE
110°
ESE
104°
ESE
100°
E
77°
ENE
61°
ENE
56°
NE
50°
NE
36°
NE
46°
NE
62°
ENE

Daily Forecast

Date High Low Precip. Humidity
Today
Aug 13

Rain
85 °F
83 °F
90%
69%
Sunday
Aug 14

Rain
84 °F
83 °F
51%
67%
Monday
Aug 15

Clear
84 °F
83 °F
0%
67%
Tuesday
Aug 16

Clear
84 °F
83 °F
1%
66%
Wednesday
Aug 17

Clear
84 °F
83 °F
0%
66%
Thursday
Aug 18

Rain
84 °F
83 °F
38%
69%
Friday
Aug 19

Rain
85 °F
83 °F
39%
73%
Saturday
Aug 20

Rain
85 °F
84 °F
94%
74%
Sunday
Aug 21

Rain
85 °F
85 °F
36%
71%
Monday
Aug 22

Rain
85 °F
84 °F
82%
75%
Tuesday
Aug 23

Rain
85 °F
84 °F
70%
74%
Wednesday
Aug 24

Rain
85 °F
84 °F
73%
72%
Thursday
Aug 25

Rain
85 °F
84 °F
65%
71%
Friday
Aug 26

Rain
84 °F
84 °F
68%
72%
Saturday
Aug 27

Rain
85 °F
84 °F
85%
74%
Sunday
Aug 28

Rain
85 °F
84 °F
72%
76%

Temperature 8-14 Day Outlook



Precipitation 8-14 Day Outlook




Quick Links
Key West News
Key West Photos
Key West Videos




About Us
Contact Us
Site Map
Search Site
Advertise With Us
   
Key-West.CoastalTown.com
THE KEY WEST WEBSITE

Copyright 2022, Coastal Town
Privacy    |    Legal